Location: Cherry Springs State Park
(41.6616°N, 77.8240°W)
Time: 13:40:22
(UTC-05:00)

Daily predictions for brighter satellites

Satellite Brightness Start Highest point End
(mag) Time Altitude Azimuth Time Altitude Azimuth Time Altitude Azimuth
Cosmos 1656 4.1 17:03:41 10° S 17:08:55 43° ESE 17:14:06 10° NE
ISS -2.0 17:07:49 10° WNW 17:10:54 37° SW 17:13:57 10° SSE
NOSS 3-4 (A) 4.2 17:07:59 10° S 17:13:30 34° ESE 17:19:09 10° NE
NOSS 3-4 (C) 4.3 17:08:06 10° S 17:13:36 34° ESE 17:19:13 10° NE
Cosmos 2297 Rocket 2.3 17:08:10 10° NNW 17:13:46 59° ENE 17:19:20 10° SE
DELTA 2 R/B (1) 3.8 17:09:25 10° W 17:14:57 72° S 17:20:31 10° E
Cosmos 1666 2.6 17:13:27 10° N 17:17:13 77° E 17:20:56 10° SSE
SJ-12 4.1 17:16:16 10° S 17:20:22 78° WSW 17:24:29 10° NNW
Cosmos 1536 Rocket 3.8 17:16:54 10° SSE 17:21:05 49° E 17:25:17 10° NNE
CZ-2C R/B 3.4 17:16:13 10° S 17:21:17 55° W 17:26:20 10° NNW
Cosmos 468 4.5 17:16:49 10° NNW 17:22:10 75° ENE 17:27:26 10° SSE
CENTAUR R/B 3.8 17:18:15 10° NNW 17:24:52 30° NE 17:31:57 10° E
Cosmos 1484 Rocket 2.8 17:25:23 10° SSE 17:29:22 71° ENE 17:33:23 10° N
SJ-7 4.3 17:26:16 10° SSE 17:30:14 78° ENE 17:34:15 10° N
Atlas Centaur 2 4.4 17:32:59 10° WSW 17:37:00 18° SSW 17:40:29 10° SSE
CSL-04 Debris 4.1 17:32:34 10° SSE 17:37:58 85° ENE 17:43:23 10° NNW
SMAP 3.0 17:33:42 10° SSE 17:38:21 81° ENE 17:43:02 10° N
USA 161 4.0 17:37:18 10° NNW 17:39:45 23° WNW 17:42:13 10° SW
METEOR-M 4.4 17:36:33 10° SE 17:41:36 45° ENE 17:46:41 10° N
FENGYUN 3A 4.3 17:40:34 10° SE 17:45:12 31° ENE 17:49:51 10° N
Meteor 2-4 Rocket 3.6 17:40:12 10° S 17:45:37 87° E 17:51:00 10° N
Cosmos 2263 Rocket 3.9 17:44:23 10° NNE 17:46:10 12° NE 17:46:10 12° NE
SL-16 R/B 4.1 17:46:48 10° ESE 17:47:41 11° E 17:47:41 11° E
Gblst 52 Del rocket 4.3 17:43:37 10° NW 17:49:09 61° NNE 17:55:13 10° ESE
IRS-1A Rocket 4.2 17:45:36 10° SSE 17:51:07 67° ENE 17:56:36 10° N
Cosmos 2322 Rocket 4.0 17:50:07 10° ESE 17:51:06 11° ESE 17:51:06 11° ESE
CSL-04 Rocket 4.2 17:46:26 10° S 17:51:49 66° WSW 17:57:20 10° NNW
Cosmos 2278 3.9 17:46:48 10° SSW 17:52:28 76° WNW 17:58:12 10° NNE
Cosmos 2369 4.0 17:47:02 10° SSW 17:52:42 72° WNW 17:58:26 10° NNE
ALOS 2.8 17:50:15 10° SE 17:54:26 34° ENE 17:58:39 10° N
Ariane Rocket 3.3 17:49:43 10° S 17:54:45 70° WSW 17:59:49 10° NNW
Meteor 1-28 Rocket 3.3 17:51:05 10° N 17:54:52 79° WNW 17:58:38 10° SSW
Cosmos 1455 Rocket 4.4 17:52:14 10° NNW 17:56:24 42° W 18:00:31 10° SSW
Cosmos 494 Rocket 4.3 17:53:01 10° N 17:58:02 41° ENE 18:02:58 10° SE
Cosmos 2266 Rocket 4.0 17:52:17 10° N 17:58:24 88° W 18:04:36 10° S
SPOT 3 Rocket 3.9 17:53:57 10° SE 17:58:43 39° ENE 18:03:30 10° N
USA 116 3.0 17:57:21 10° NNE 18:00:27 84° ESE 18:03:33 10° SSW
Cosmos 1697 Rocket 2.6 17:59:32 10° SSW 18:05:11 85° ESE 18:10:37 11° NNE
RESURS DK-1 3.2 18:02:30 10° S 18:06:08 31° ESE 18:07:11 27° E
Cosmos 1515 3.5 18:03:21 10° S 18:07:06 70° E 18:10:35 12° NNE
Cosmos 2251 Rocket 4.1 18:02:19 10° N 18:07:07 34° ENE 18:11:50 10° SE
YAOGAN 1 2.5 18:03:20 10° SSE 18:07:39 86° ENE 18:12:00 10° NNW
Cosmos 1184 Rocket 4.2 18:06:50 10° SSE 18:08:40 22° ESE 18:08:40 22° ESE
Cosmos 1125 Rocket 4.3 18:04:35 10° SW 18:09:44 52° WNW 18:14:54 10° N
Cosmos 1269 Rocket 4.4 18:06:38 10° NNW 18:11:55 67° WSW 18:17:09 10° S
EO 1 Del DPAF 3.4 18:10:43 24° NE 18:12:43 49° E 18:16:25 10° S
MTI 3.6 18:11:44 23° NNE 18:13:37 74° ESE 18:16:51 10° S
ERS-2 2.0 18:14:23 10° SSE 18:17:59 61° ENE 18:21:38 10° N
S3M 4.4 18:17:46 10° SSE 18:23:18 38° E 18:26:25 23° NE
SJ 16-02 3.0 18:20:08 10° SW 18:24:04 32° WNW 18:28:04 10° N
Landsat 4 3.9 18:20:58 14° N 18:24:14 74° WNW 18:28:02 10° SSW
Meteor 1-15 Rocket 4.5 18:18:23 10° NNW 18:24:20 77° W 18:30:11 10° S
COSMO-SKYMED 1 2.5 18:21:00 12° NNE 18:25:04 89° W 18:29:24 10° SSW
PSLV R/B 3.0 18:23:13 10° W 18:26:22 73° S 18:26:40 65° SE
CZ-4 R/B 3.0 18:23:26 10° SSW 18:27:02 36° W 18:30:43 10° NNW
Cosmos 2227 Rocket 4.4 18:26:35 10° NW 18:31:16 27° WSW 18:35:54 10° SSW
Abrixas rocket 3.8 18:31:48 10° NW 18:33:52 24° NNW 18:33:52 24° NNW
Cosmos 1244 Rocket 4.3 18:29:46 10° N 18:35:57 82° E 18:42:09 10° S
NOSS 3-2 (C) 4.3 18:29:05 10° NW 18:36:40 71° WSW 18:44:53 10° SSE
Cosmos 1025 Rocket 3.8 18:40:24 10° SSW 18:44:35 52° W 18:48:17 13° N
FengYun 1-2 T 4.3 18:40:59 10° SSE 18:46:28 56° ENE 18:52:00 10° N
Cosmos 1980 Rocket 2.3 18:41:28 10° SSW 18:47:09 76° WNW 18:50:26 26° NNE
USA 215 4.1 18:42:02 10° SSE 18:48:18 48° SW 18:54:35 10° WNW
Cosmos 2084 4.4 18:45:46 10° WSW 18:49:41 40° NW 18:50:39 34° NNW
Cosmos 1066 Rocket 4.0 18:47:21 10° S 18:52:52 84° E 18:55:35 31° NNE
SL-08 R/B 4.3 18:48:03 10° N 18:54:20 75° E 19:00:30 10° SSE
Cosmos 1553 Rocket 3.9 18:49:08 10° S 18:55:31 78° E 19:01:01 15° N
Cosmos 1417 Rocket 4.4 18:52:54 10° S 18:59:04 86° W 19:05:20 10° N
Okean 1-7 Rocket 4.4 18:54:55 10° SSW 18:59:10 49° WNW 19:01:59 20° N
DELTA 2 R/B (1) 4.3 18:55:50 10° W 19:01:08 46° SSW 19:02:55 35° SSE
Meteor 1-22 Rocket 4.1 18:58:06 10° N 19:04:00 69° ENE 19:09:39 10° SSE
NOSS 3-4 (A) 4.3 18:58:14 10° WSW 19:04:11 46° NW 19:07:29 26° NNE
NOSS 3-4 (C) 4.3 18:58:18 10° WSW 19:04:16 46° NW 19:07:32 26° NNE
Cosmos 1745 Rocket 3.8 19:02:50 10° N 19:09:05 79° E 19:15:22 10° S
NOSS 2-2 (D) 4.0 19:07:12 10° SW 19:10:22 53° WSW 19:10:22 53° WSW
CENTAUR R/B 3.1 19:08:33 10° NW 19:16:33 87° WSW 19:22:17 24° SSE
Cosmos 2344 3.6 19:14:32 10° SSW 19:21:59 58° ESE 19:22:05 58° ESE
Lacrosse 5 rocket 3.4 19:23:42 10° SW 19:25:21 23° SSW 19:25:21 23° SSW
SL-16 R/B 2.7 19:25:33 10° SSW 19:29:37 49° SSW 19:29:37 49° SSW
Cosmos 2263 Rocket 3.7 19:25:46 10° NNW 19:27:54 24° NNW 19:27:54 24° NNW
ALOS 4.5 19:28:07 10° SSW 19:31:54 24° W 19:35:43 10° NW
Cosmos 2322 Rocket 2.9 19:29:14 10° SSW 19:32:59 45° SSW 19:32:59 45° SSW
